Location: Buffign�court
(47.8126°N, 6.0176°E)
Time: 16:24:18
(UTC+00:00)

Cosmos 389 Rocket - Pass Details

Date: 16 June 2021
Orbit: 440 x 471 km, 81.1° (Epoch: 04 August)

Event Time Altitude Azimuth Distance (km) Brightness Sun altitude
Rises 21:57:10 0° 355° (N) 2,446 7.6 -15.4°
Reaches altitude 10° 21:59:19 10° 3° (N) 1,572 6.2 -15.5°
Maximum altitude 22:02:34 40° 74° (ENE) 676 3.2 -15.7°
Enters shadow 22:03:42 29° 119° (ESE) 837 3.3 -15.8°
